User: anonymous   Login
Location: Skalnate Pleso
(49.1889°N, 20.2450°E)
Time: 04:24:49
(UTC+01:00)
Language:

Iridium 45 - Orbit

View from above orbital plane
View from above orbital plane
View from above satellite
View from above satellite

Ground track
Ground track

The orbit data is extracted from the following two-line orbital elements,

1 25104U 97082A   14354.48976733  .00000991  00000-0  34696-3 0   241
2 25104 087.0276 294.4761 0002490 095.2884 264.8597 14.34217242889981
Epoch (UTC): 20 December 2014 11:45:15
Eccentricity: 0.0002490
inclination: 87.0276°
perigee height: 776 km
apogee height: 779 km
right ascension of ascending node: 294.4761°
argument of perigee: 95.2884°
revolutions per day: 14.34217242
mean anomaly at epoch: 264.8597°
orbit number at epoch: 88998

The dashed part of the orbit path shows where the satellite is in the earth's shadow,  

DLR